Вернуться в каталог

STARLINK-30291

АктивенСвязьVLEO
NORAD 57856·PAYLOAD·🇺🇸 United States

Запущен Sep 12, 2023 с Vandenberg Space Force Base

Loading…

Ближайшие Пролёты (ближайшие 24 часа)

TLE

СвежийSource: CelesTrak SupGP

Эпоха: Sep 14, 2026, 21:35 UTC

1 57856C 23141S   26257.89979167 -.00140840  00000+0 -45232-2 0  2573
2 57856  53.1571 123.7410 0001413  82.6097  89.2264 15.31812642    19

Отслеживайте STARLINK-30291 в реальном времени с AllMySat

Download on the App Store